| time (UTC) | temp F | wind direction | speed MPH | gust MPH | rain 1hr in | rain 24hr in | rain mn in | humidity % | barometer mb |
| 20260831181549 | 69 | 302 | 0.0 | 2.0 | 0.00 | 0.00 | 0.00 | 53 | 1007.2 |
| 20260831180034 | 68 | 235 | 0.0 | 3.0 | 0.00 | 0.00 | 0.00 | 55 | 1007.3 |
| 20260831174530 | 67 | 325 | 0.0 | 5.0 | 0.00 | 0.00 | 0.00 | 57 | 1007.4 |
| 20260831173030 | 67 | 55 | 1.0 | 3.0 | 0.00 | 0.00 | 0.00 | 57 | 1007.4 |
| 20260831171525 | 66 | 55 | 0.0 | 2.0 | 0.00 | 0.00 | 0.00 | 61 | 1007.4 |
| 20260831170033 | 66 | 24 | 0.0 | 4.0 | 0.00 | 0.00 | 0.00 | 61 | 1007.3 |
| 20260831164524 | 66 | 56 | 0.0 | 2.0 | 0.00 | 0.00 | 0.00 | 62 | 1007.3 |
| 20260831163025 | 66 | 310 | 0.0 | 3.0 | 0.00 | 0.00 | 0.00 | 61 | 1007.4 |
| 20260831161521 | 66 | 11 | 0.0 | 1.0 | 0.00 | 0.00 | 0.00 | 63 | 1007.4 |
| 20260831160035 | 65 | 354 | 0.0 | 1.0 | 0.00 | 0.00 | 0.00 | 66 | 1007.3 |
| 20260831154514 | 63 | 352 | 0.0 | 2.0 | 0.00 | 0.00 | 0.00 | 70 | 1007.3 |
| 20260831153029 | 61 | 119 | 0.0 | 2.0 | 0.00 | 0.00 | 0.00 | 73 | 1007.4 |
| 20260831151506 | 58 | 67 | 0.0 | 1.0 | 0.00 | 0.00 | 0.00 | 77 | 1007.4 |
| 20260831150005 | 57 | 63 | 0.0 | 1.0 | 0.00 | 0.00 | 0.00 | 80 | 1007.3 |
| 20260831144504 | 55 | 72 | 0.0 | 2.0 | 0.00 | 0.00 | 0.00 | 83 | 1007.2 |
| 20260831143003 | 54 | 113 | 0.0 | 0.0 | 0.00 | 0.00 | 0.00 | 85 | 1007.1 |
| 20260831141504 | 54 | 175 | 0.0 | 1.0 | 0.00 | 0.00 | 0.00 | 85 | 1006.8 |
| 20260831140100 | 53 | 100 | 0.0 | 1.0 | 0.00 | 0.00 | 0.00 | 87 | 1006.8 |
| 20260831134606 | 52 | 77 | 0.0 | 1.0 | 0.00 | 0.00 | 0.00 | 88 | 1006.6 |
| 20260831133100 | 52 | 77 | 0.0 | 0.0 | 0.00 | 0.00 | 0.00 | 89 | 1006.5 |
| 20260831131604 | 51 | 77 | 0.0 | 0.0 | 0.00 | 0.00 | 0.00 | 90 | 1006.5 |
| 20260831130112 | 51 | 77 | 0.0 | 0.0 | 0.00 | 0.00 | 0.00 | 89 | 1006.7 |
| 20260831124600 | 52 | 77 | 0.0 | 0.0 | 0.00 | 0.00 | 0.00 | 89 | 1006.7 |
| 20260831123056 | 52 | 77 | 0.0 | 0.0 | 0.00 | 0.00 | 0.00 | 89 | 1006.6 |
| 20260831121553 | 52 | 77 | 0.0 | 0.0 | 0.00 | 0.00 | 0.00 | 88 | 1006.5 |
| 20260831120140 | 52 | 77 | 0.0 | 0.0 | 0.00 | 0.00 | 0.00 | 87 | 1006.3 |
| 20260831114548 | 53 | 77 | 0.0 | 0.0 | 0.00 | 0.00 | 0.00 | 87 | 1006.3 |
| 20260831113049 | 53 | 77 | 0.0 | 0.0 | 0.00 | 0.00 | 0.00 | 87 | 1006.1 |
| 20260831111551 | 53 | 77 | 0.0 | 0.0 | 0.00 | 0.00 | 0.00 | 86 | 1006.1 |
| 20260831110041 | 54 | 77 | 0.0 | 0.0 | 0.00 | 0.00 | 0.00 | 86 | 1006.0 |
| 20260831104540 | 54 | 66 | 0.0 | 0.0 | 0.00 | 0.00 | 0.00 | 85 | 1005.7 |
| 20260831103044 | 55 | 65 | 0.0 | 0.0 | 0.00 | 0.00 | 0.00 | 84 | 1005.7 |
| 20260831101535 | 55 | 65 | 0.0 | 0.0 | 0.00 | 0.00 | 0.00 | 83 | 1005.7 |
| 20260831100036 | 55 | 65 | 0.0 | 0.0 | 0.00 | 0.00 | 0.00 | 82 | 1005.5 |
| 20260831094527 | 56 | 65 | 0.0 | 0.0 | 0.00 | 0.00 | 0.00 | 80 | 1005.4 |
| 20260831093025 | 57 | 65 | 0.0 | 1.0 | 0.00 | 0.00 | 0.00 | 79 | 1005.1 |
| 20260831091526 | 57 | 65 | 0.0 | 2.0 | 0.00 | 0.00 | 0.00 | 79 | 1005.2 |
| 20260831090021 | 58 | 63 | 0.0 | 1.0 | 0.00 | 0.00 | 0.00 | 78 | 1005.1 |
| 20260831084519 | 58 | 63 | 0.0 | 0.0 | 0.00 | 0.00 | 0.00 | 78 | 1005.1 |
| 20260831083017 | 58 | 65 | 0.0 | 1.0 | 0.00 | 0.00 | 0.00 | 78 | 1004.9 |
| 20260831081532 | 58 | 63 | 0.0 | 1.0 | 0.00 | 0.00 | 0.00 | 78 | 1005.0 |
| 20260831080013 | 58 | 65 | 0.0 | 1.0 | 0.00 | 0.00 | 0.00 | 79 | 1004.9 |
| 20260831074512 | 57 | 65 | 0.0 | 2.0 | 0.00 | 0.00 | 0.00 | 82 | 1004.8 |
| 20260831073007 | 56 | 66 | 0.0 | 1.0 | 0.00 | 0.00 | 0.00 | 84 | 1004.6 |
| 20260831071502 | 56 | 65 | 0.0 | 0.0 | 0.00 | 0.00 | 0.00 | 84 | 1004.4 |
| 20260831070129 | 57 | 64 | 0.0 | 1.0 | 0.00 | 0.00 | 0.00 | 84 | 1004.3 |
| 20260831064558 | 57 | 77 | 0.0 | 1.0 | 0.00 | 0.00 | 0.00 | 83 | 1004.4 |
| 20260831063100 | 57 | 65 | 0.0 | 0.0 | 0.00 | 0.00 | 0.00 | 83 | 1004.3 |
| 20260831061557 | 57 | 64 | 0.0 | 1.0 | 0.00 | 0.00 | 0.00 | 83 | 1004.4 |
| 20260831060106 | 58 | 64 | 0.0 | 0.0 | 0.00 | 0.00 | 0.00 | 82 | 1004.3 |
| 20260831054552 | 58 | 65 | 0.0 | 0.0 | 0.00 | 0.00 | 0.00 | 81 | 1004.3 |
| 20260831053052 | 59 | 65 | 0.0 | 0.0 | 0.00 | 0.00 | 0.00 | 80 | 1004.5 |
| 20260831051615 | 59 | 65 | 0.0 | 2.0 | 0.00 | 0.00 | 0.00 | 78 | 1004.4 |
| 20260831050049 | 60 | 63 | 0.0 | 1.0 | 0.00 | 0.00 | 0.00 | 76 | 1004.3 |
| 20260831044549 | 60 | 62 | 0.0 | 1.0 | 0.00 | 0.00 | 0.00 | 76 | 1004.2 |
| 20260831043047 | 60 | 64 | 0.0 | 3.0 | 0.00 | 0.00 | 0.00 | 75 | 1004.2 |
| 20260831041546 | 60 | 78 | 0.0 | 1.0 | 0.00 | 0.00 | 0.00 | 75 | 1004.0 |
| 20260831040049 | 60 | 164 | 0.0 | 0.0 | 0.00 | 0.00 | 0.00 | 75 | 1004.0 |
| 20260831034543 | 61 | 164 | 0.0 | 0.0 | 0.00 | 0.00 | 0.00 | 74 | 1003.9 |
| 20260831033043 | 61 | 165 | 0.0 | 0.0 | 0.00 | 0.00 | 0.00 | 74 | 1003.8 |
| 20260831031544 | 61 | 165 | 0.0 | 0.0 | 0.00 | 0.00 | 0.00 | 73 | 1003.6 |
| 20260831030039 | 62 | 165 | 0.0 | 0.0 | 0.00 | 0.00 | 0.00 | 72 | 1003.4 |
| 20260831024538 | 62 | 165 | 0.0 | 0.0 | 0.00 | 0.00 | 0.00 | 72 | 1003.1 |
| 20260831023040 | 63 | 165 | 0.0 | 0.0 | 0.00 | 0.00 | 0.00 | 72 | 1003.0 |
| 20260831021548 | 64 | 202 | 0.0 | 0.0 | 0.00 | 0.00 | 0.00 | 71 | 1002.9 |
| 20260831020028 | 64 | 202 | 0.0 | 0.0 | 0.00 | 0.00 | 0.00 | 70 | 1002.9 |
| 20260831014527 | 65 | 200 | 0.0 | 0.0 | 0.00 | 0.00 | 0.00 | 68 | 1003.0 |
| 20260831013026 | 65 | 67 | 0.0 | 1.0 | 0.00 | 0.00 | 0.00 | 68 | 1003.2 |
| 20260831011523 | 66 | 65 | 0.0 | 1.0 | 0.00 | 0.00 | 0.00 | 69 | 1003.1 |
| 20260831010039 | 66 | 63 | 0.0 | 1.0 | 0.00 | 0.00 | 0.00 | 69 | 1003.2 |
| 20260831004519 | 66 | 62 | 0.0 | 1.0 | 0.00 | 0.00 | 0.00 | 69 | 1003.3 |
| 20260831003017 | 66 | 63 | 0.0 | 1.0 | 0.00 | 0.00 | 0.00 | 68 | 1003.2 |
| 20260831001529 | 67 | 238 | 0.0 | 1.0 | 0.00 | 0.00 | 0.00 | 66 | 1003.2 |
| 20260831000015 | 67 | 311 | 0.0 | 1.0 | 0.00 | 0.00 | 0.00 | 67 | 1003.0 |
| 20260830234514 | 67 | 148 | 0.0 | 1.0 | 0.00 | 0.00 | 0.00 | 67 | 1003.0 |
| 20260830233015 | 67 | 8 | 0.0 | 3.0 | 0.00 | 0.00 | 0.00 | 66 | 1003.0 |
| 20260830231525 | 68 | 23 | 0.0 | 3.0 | 0.00 | 0.00 | 0.00 | 64 | 1002.9 |
| 20260830230013 | 68 | 359 | 0.0 | 0.0 | 0.00 | 0.00 | 0.00 | 65 | 1002.8 |
| 20260830224511 | 68 | 74 | 1.0 | 4.0 | 0.00 | 0.00 | 0.00 | 64 | 1002.9 |
| 20260830223016 | 68 | 60 | 0.0 | 3.0 | 0.00 | 0.00 | 0.00 | 64 | 1002.9 |
| 20260830221509 | 68 | 62 | 0.0 | 2.0 | 0.00 | 0.00 | 0.00 | 65 | 1002.8 |
| 20260830220008 | 68 | 70 | 0.0 | 3.0 | 0.00 | 0.00 | 0.00 | 65 | 1002.8 |
| 20260830214504 | 68 | 61 | 0.0 | 3.0 | 0.00 | 0.00 | 0.00 | 66 | 1002.9 |
| 20260830213003 | 67 | 58 | 0.0 | 5.0 | 0.00 | 0.00 | 0.00 | 66 | 1002.8 |
| 20260830211508 | 67 | 64 | 0.0 | 3.0 | 0.00 | 0.00 | 0.00 | 65 | 1002.8 |
| 20260830210002 | 67 | 74 | 0.0 | 2.0 | 0.00 | 0.00 | 0.00 | 65 | 1002.6 |
| 20260830204600 | 67 | 59 | 0.0 | 3.0 | 0.00 | 0.00 | 0.00 | 67 | 1002.5 |
| 20260830203119 | 67 | 62 | 0.0 | 2.0 | 0.00 | 0.00 | 0.00 | 68 | 1002.5 |
| 20260830201600 | 67 | 68 | 1.0 | 3.0 | 0.00 | 0.00 | 0.00 | 69 | 1002.5 |
| 20260830200059 | 66 | 72 | 0.0 | 3.0 | 0.00 | 0.00 | 0.00 | 72 | 1002.5 |
| 20260830194552 | 65 | 82 | 0.0 | 2.0 | 0.00 | 0.00 | 0.00 | 74 | 1002.6 |
| 20260830193051 | 65 | 65 | 0.0 | 4.0 | 0.00 | 0.00 | 0.00 | 76 | 1002.5 |
| 20260830191547 | 65 | 68 | 1.0 | 3.0 | 0.00 | 0.00 | 0.00 | 76 | 1002.6 |
| 20260830190045 | 64 | 62 | 0.0 | 3.0 | 0.00 | 0.00 | 0.00 | 77 | 1002.3 |
| 20260830184542 | 63 | 63 | 0.0 | 2.0 | 0.00 | 0.00 | 0.00 | 79 | 1002.0 |
| 20260830183040 | 63 | 70 | 0.0 | 3.0 | 0.00 | 0.00 | 0.00 | 80 | 1002.3 |